Waarnemingen

Advertentie
Mijn weer
Lake Vyrnwy, Groot Brittannië (3410): temperatuur & dauwpunt: 24.05.2020 23:00:00 - 30.05.2020 23:00:00 (BST)Lake Vyrnwy, Groot Brittannië (3410): temperatuur -20cm & temperatuur -100cm: 24.05.2020 23:00:00 - 30.05.2020 23:00:00 (BST)Lake Vyrnwy, Groot Brittannië (3410): windsnelheid & windstoten: 24.05.2020 23:00:00 - 30.05.2020 23:00:00 (BST)Lake Vyrnwy, Groot Brittannië (3410): windrichting: 24.05.2020 23:00:00 - 30.05.2020 23:00:00 (BST)Lake Vyrnwy, Groot Brittannië (3410): luchtdruk: 24.05.2020 23:00:00 - 30.05.2020 23:00:00 (BST)Lake Vyrnwy, Groot Brittannië (3410): zicht: 24.05.2020 23:00:00 - 30.05.2020 23:00:00 (BST)Lake Vyrnwy, Groot Brittannië (3410): Zonneschijnduur: 24.05.2020 23:00:00 - 30.05.2020 23:00:00 (BST)Lake Vyrnwy, Groot Brittannië (3410): neerslag: 24.05.2020 23:00:00 - 30.05.2020 23:00:00 (BST)
Datum & Tijd tt [°C] td [°C] tt -20cm [°C] tt -100cm [°C] ff [km/u] ff [kn] fx [km/u] fx [kn] dd ppp [hPa] vv [km] sd [min] rr [mm]
30.05.2020 23:00:00 15,5 7,4 - - 16 9 - - ONO 1022,2 35 0 0,0
30.05.2020 22:00:00 16,6 7,0 - - 11 6 - - ONO 1021,7 40 0 0,0
30.05.2020 21:00:00 18,2 7,1 - - 11 6 - - O 1020,7 40 18 0,0
30.05.2020 20:00:00 19,3 6,9 - - 11 6 - - OZO 1020,4 50 54 0,0
30.05.2020 19:00:00 20,0 7,6 - - 15 8 - - O 1020,4 50 60 0,0
30.05.2020 18:00:00 20,5 7,1 - - 13 7 - - OZO 1020,6 50 60 0,0
30.05.2020 17:00:00 20,2 6,3 - - 15 8 - - OZO 1021,0 60 60 0,0
30.05.2020 16:00:00 20,6 7,7 - - 13 7 - - ZO 1021,1 45 60 0,0
30.05.2020 15:00:00 20,0 8,0 - - 15 8 - - ZO 1021,7 65 60 0,0
30.05.2020 14:00:00 18,5 5,1 - - 13 7 - - O 1022,3 60 60 0,0
30.05.2020 13:00:00 17,4 6,1 - - 15 8 - - OZO 1023,0 55 60 0,0
30.05.2020 12:00:00 15,8 5,9 - - 16 9 - - O 1023,6 40 60 0,0
30.05.2020 11:00:00 15,2 3,8 - - 15 8 - - O 1023,9 50 60 0,0
30.05.2020 10:00:00 14,5 2,9 14,0 11,2 13 7 - - O 1024,0 55 60 0,0
30.05.2020 09:00:00 12,7 4,6 - - 13 7 - - O 1024,4 60 60 0,0
30.05.2020 08:00:00 11,5 5,4 - - 11 6 - - O 1024,7 45 60 0,0
30.05.2020 07:00:00 11,4 5,5 - - 4 2 - - ONO 1024,8 55 60 0,0
30.05.2020 06:00:00 9,7 5,8 - - 5 3 - - N 1025,0 45 18 0,0
30.05.2020 05:00:00 9,1 5,2 - - 9 5 - - NNW 1025,1 45 0 0,0
30.05.2020 04:00:00 10,3 5,4 - - 8 4 - - N 1025,2 50 0 0,0
30.05.2020 03:00:00 11,1 5,8 - - 5 3 - - ONO 1025,2 50 0 0,0
30.05.2020 02:00:00 12,3 6,3 - - 9 5 - - NO 1025,0 45 0 0,0
30.05.2020 01:00:00 13,5 6,7 - - 11 6 - - ONO 1024,9 50 - 0,0
30.05.2020 00:00:00 14,6 6,2 - - 11 6 - - ONO 1024,5 60 0 0,0
29.05.2020 23:00:00 15,2 5,8 - - 9 5 - - ONO 1024,4 60 0 0,0
29.05.2020 22:00:00 17,4 4,6 - - 8 4 - - OZO 1024,0 60 0 0,0
29.05.2020 21:00:00 17,9 4,7 - - 13 7 - - OZO 1023,6 60 24 0,0
29.05.2020 20:00:00 19,3 5,2 - - 11 6 - - OZO 1023,4 45 60 0,0
29.05.2020 19:00:00 20,1 5,1 - - 13 7 - - OZO 1023,5 65 60 0,0
29.05.2020 18:00:00 20,4 4,6 - - 15 8 - - OZO 1023,8 65 60 0,0
29.05.2020 17:00:00 20,9 4,6 - - 13 7 - - OZO 1024,1 60 60 0,0
29.05.2020 16:00:00 20,3 0,2 - - 13 7 - - OZO 1024,7 55 60 0,0
29.05.2020 15:00:00 20,2 1,1 - - 16 9 - - O 1025,1 60 60 0,0
29.05.2020 14:00:00 19,8 3,0 - - 13 7 - - O 1025,9 70 60 0,0
29.05.2020 13:00:00 18,3 0,5 - - 16 9 - - OZO 1026,7 50 60 0,0
29.05.2020 12:00:00 17,8 1,3 - - 21 11 - - OZO 1027,3 50 60 0,0
29.05.2020 11:00:00 16,7 2,2 - - 13 7 - - OZO 1027,8 60 60 0,0
29.05.2020 10:00:00 15,1 4,5 13,7 11,0 15 8 - - O 1028,3 55 60 0,0
29.05.2020 09:00:00 13,7 4,0 - - 13 7 - - OZO 1028,5 50 60 0,0
29.05.2020 08:00:00 12,8 4,3 - - 11 6 - - OZO 1028,9 60 60 0,0
29.05.2020 07:00:00 12,0 3,1 - - 8 4 - - O 1029,1 55 60 0,0
29.05.2020 06:00:00 11,2 2,9 - - 8 4 - - O 1029,4 55 6 0,0
29.05.2020 05:00:00 10,8 3,4 - - 5 3 - - O 1029,5 50 0 0,0
29.05.2020 04:00:00 11,4 4,4 - - 11 6 - - OZO 1029,5 45 0 0,0
29.05.2020 03:00:00 12,5 4,8 - - 9 5 - - OZO 1029,6 50 0 0,0
29.05.2020 02:00:00 13,3 5,4 - - 9 5 - - OZO 1029,8 45 0 0,0
29.05.2020 01:00:00 14,0 5,6 - - 9 5 - - OZO 1029,8 50 - 0,0
29.05.2020 00:00:00 14,8 6,8 - - 8 4 - - O 1029,7 50 0 0,0
28.05.2020 23:00:00 16,1 8,4 - - 9 5 - - O 1029,6 45 0 0,0
28.05.2020 22:00:00 17,4 8,7 - - 11 6 - - OZO 1029,5 45 0 0,0
28.05.2020 21:00:00 18,2 8,8 - - 11 6 - - OZO 1029,3 45 18 0,0
28.05.2020 20:00:00 19,1 9,9 - - 9 5 - - O 1029,3 50 60 0,0
28.05.2020 19:00:00 19,9 10,1 - - 16 9 - - O 1029,3 45 60 0,0
28.05.2020 18:00:00 20,7 11,5 - - 13 7 - - O 1029,5 40 60 0,0
28.05.2020 17:00:00 20,7 10,8 - - 11 6 - - O 1029,9 45 60 0,0
28.05.2020 16:00:00 20,6 10,5 - - 9 5 - - ONO 1030,5 40 60 0,0
28.05.2020 15:00:00 20,6 10,6 - - 9 5 - - O 1031,1 35 60 0,0
28.05.2020 14:00:00 20,0 10,8 - - 9 5 - - O 1031,7 40 60 0,0
28.05.2020 13:00:00 19,0 12,0 - - 9 5 - - ZZO 1032,3 45 60 0,0
28.05.2020 12:00:00 17,8 11,8 - - 9 5 - - OZO 1033,0 28 60 0,0
28.05.2020 11:00:00 15,8 10,9 - - 9 5 - - OZO 1033,8 29 60 0,0
28.05.2020 10:00:00 15,3 11,8 13,2 10,7 11 6 - - O 1034,1 25 60 0,0
28.05.2020 09:00:00 13,8 10,6 - - 9 5 - - O 1034,6 27 60 0,0
28.05.2020 08:00:00 13,0 10,1 - - 8 4 - - O 1034,9 26 60 0,0
28.05.2020 07:00:00 11,4 9,5 - - 0 0 - - N 1035,4 21 36 0,0
28.05.2020 06:00:00 9,5 8,3 - - 2 1 - - Z 1035,6 19 0 0,0
28.05.2020 05:00:00 10,1 8,7 - - 9 5 - - N 1035,7 23 0 0,0
28.05.2020 04:00:00 10,6 8,1 - - 5 3 - - NNO 1036,0 27 0 0,0
28.05.2020 03:00:00 11,2 7,8 - - 5 3 - - N 1036,0 28 0 0,0
28.05.2020 02:00:00 11,7 8,1 - - 9 5 - - ONO 1036,1 24 0 0,0
28.05.2020 01:00:00 11,7 7,2 - - 9 5 - - NO 1036,1 27 - 0,0
28.05.2020 00:00:00 12,2 6,8 - - 4 2 - - O 1036,1 21 0 0,0
27.05.2020 23:00:00 12,2 6,7 - - 4 2 - - NNO 1036,3 40 0 0,0
27.05.2020 22:00:00 13,8 6,8 - - 13 7 - - NNW 1036,2 40 0 0,0
27.05.2020 21:00:00 15,6 7,0 - - 11 6 - - NNO 1035,6 40 18 0,0
27.05.2020 20:00:00 17,0 7,2 - - 13 7 - - ONO 1035,1 30 60 0,0
27.05.2020 19:00:00 17,9 7,1 - - 16 9 - - ONO 1034,7 35 60 0,0
27.05.2020 18:00:00 19,2 8,5 - - 13 7 - - O 1034,6 35 60 0,0
27.05.2020 17:00:00 19,4 7,4 - - 11 6 - - O 1034,7 50 60 0,0
27.05.2020 16:00:00 19,3 7,4 - - 11 6 - - O 1035,1 50 60 0,0
27.05.2020 15:00:00 19,8 6,9 - - 5 3 - - NNO 1035,0 45 60 0,0
27.05.2020 14:00:00 19,4 7,4 - - 5 3 - - ONO 1035,5 50 60 0,0
27.05.2020 13:00:00 18,3 5,9 - - 5 3 - - N 1036,0 50 60 0,0
27.05.2020 12:00:00 17,5 5,9 - - 8 4 - - NNW 1036,1 45 60 0,0
27.05.2020 11:00:00 16,7 6,2 - - 5 3 - - N 1036,5 45 60 0,0
27.05.2020 10:00:00 15,6 5,4 12,7 10,7 8 4 - - O 1036,8 55 60 0,0
27.05.2020 09:00:00 14,0 7,6 - - 2 1 - - ZZO 1037,1 40 60 0,0
27.05.2020 08:00:00 12,8 7,0 - - 2 1 - - NO 1037,3 35 60 0,0
27.05.2020 07:00:00 9,6 6,0 - - 5 3 - - NNW 1037,5 35 36 0,0
27.05.2020 06:00:00 8,1 2,8 - - 9 5 - - NW 1037,8 45 0 0,0
27.05.2020 05:00:00 6,6 2,5 - - 8 4 - - N 1037,9 50 0 0,0
27.05.2020 04:00:00 8,9 2,4 - - 9 5 - - NW 1037,4 60 0 0,0
27.05.2020 03:00:00 8,5 4,6 - - 4 2 - - NNO 1037,8 50 0 0,0
27.05.2020 02:00:00 9,5 7,7 - - 13 7 - - NNW 1037,8 35 0 0,0
27.05.2020 01:00:00 10,9 9,1 - - 4 2 - - NW 1037,7 40 - 0,0
27.05.2020 00:00:00 11,3 9,9 - - 8 4 - - N 1037,6 30 0 0,0
26.05.2020 23:00:00 12,2 10,0 - - 5 3 - - NW 1037,3 35 0 0,0
26.05.2020 22:00:00 13,0 10,3 - - 11 6 - - N 1037,2 35 0 0,0
26.05.2020 21:00:00 14,3 11,2 - - 5 3 - - NNW 1036,8 40 0 0,0
26.05.2020 20:00:00 15,6 11,7 - - 8 4 - - NO 1036,2 50 6 0,0
26.05.2020 19:00:00 16,3 11,8 - - 11 6 - - ONO 1035,9 50 12 0,0
26.05.2020 18:00:00 18,1 11,4 - - 9 5 - - NNW 1035,7 65 60 0,0
26.05.2020 17:00:00 18,4 11,4 - - 8 4 - - N 1035,7 70 60 0,0
26.05.2020 16:00:00 17,8 11,8 - - 9 5 - - N 1036,1 70 18 0,0
26.05.2020 15:00:00 17,0 11,8 - - 8 4 - - N 1036,4 75 36 0,0
26.05.2020 14:00:00 16,2 11,1 - - 9 5 - - W 1036,6 60 30 0,0
26.05.2020 13:00:00 14,5 10,8 - - 8 4 - - W 1036,9 75 0 0,0
26.05.2020 12:00:00 12,7 11,1 - - 8 4 - - ZW 1037,1 65 0 0,0
26.05.2020 11:00:00 12,1 10,9 - - 2 1 - - ZZO 1037,1 3,0 0 0,0
26.05.2020 10:00:00 11,2 10,3 12,2 10,7 5 3 - - ZZW 1037,0 18 0 0,0
26.05.2020 09:00:00 10,4 10,0 - - 4 2 - - ZZO 1037,0 2,8 0 0,0
26.05.2020 08:00:00 10,0 9,5 - - 2 1 - - ZW 1036,6 5 0 0,0
26.05.2020 07:00:00 10,1 9,1 - - 15 8 - - WZW 1036,0 2,9 0 0,0
26.05.2020 06:00:00 9,4 8,1 - - 16 9 - - W 1035,6 26 0 0,0
26.05.2020 05:00:00 9,5 7,5 - - 21 11 - - W 1035,4 35 0 0,0
26.05.2020 04:00:00 9,3 4,9 - - 15 8 - - W 1035,0 55 0 0,0
26.05.2020 03:00:00 9,5 4,2 - - 22 12 - - WZW 1035,0 60 0 0,0
26.05.2020 02:00:00 10,1 3,2 - - 21 11 - - WZW 1034,8 70 0 0,0
26.05.2020 01:00:00 10,7 3,5 - - 21 11 - - WZW 1034,6 60 - 0,0
26.05.2020 00:00:00 10,9 3,5 - - 5 3 - - WNW 1034,5 60 0 0,0
25.05.2020 23:00:00 10,7 4,3 - - 9 5 - - WZW 1034,8 55 0 0,0
25.05.2020 22:00:00 10,3 4,7 - - 4 2 - - Z 1034,5 55 0 0,0
25.05.2020 21:00:00 11,3 4,9 - - 16 9 - - WZW 1034,3 55 12 0,0
25.05.2020 20:00:00 13,4 5,6 - - 18 10 - - ZW 1033,5 55 60 0,0
25.05.2020 19:00:00 15,0 6,6 - - 21 11 - - ZW 1033,4 65 60 0,0
25.05.2020 18:00:00 15,2 6,0 - - 29 16 52 28 ZW 1033,2 50 60 0,0
25.05.2020 17:00:00 16,2 7,4 - - 31 17 55 30 ZW 1033,2 50 60 0,0
25.05.2020 16:00:00 16,6 5,6 - - 34 18 54 29 ZW 1033,1 60 60 0,0
25.05.2020 15:00:00 16,9 2,9 - - 35 19 52 28 ZW 1033,2 60 60 0,0
25.05.2020 14:00:00 16,4 2,6 - - 24 13 - - ZW 1033,4 75 60 0,0
25.05.2020 13:00:00 15,8 6,2 - - 22 12 - - ZW 1033,9 75 60 0,0
25.05.2020 12:00:00 14,7 4,4 - - 26 14 - - ZW 1033,8 75 60 0,0
25.05.2020 11:00:00 14,5 6,6 - - 15 8 - - ZZW 1033,6 75 60 0,0
25.05.2020 10:00:00 13,3 6,3 11,5 10,7 16 9 - - ZZW 1034,0 50 60 0,0
25.05.2020 09:00:00 11,6 5,0 - - 16 9 - - ZZW 1034,2 55 60 0,0
25.05.2020 08:00:00 9,9 6,4 - - 4 2 - - ZO 1034,4 50 60 0,0
25.05.2020 07:00:00 8,3 5,9 - - 2 1 - - WZW 1034,4 35 60 0,0
25.05.2020 06:00:00 6,7 4,7 - - 5 3 - - NW 1034,7 40 12 0,0
25.05.2020 05:00:00 6,1 4,6 - - 11 6 - - W 1034,7 35 0 0,0
25.05.2020 04:00:00 6,1 4,0 - - 13 7 - - WNW 1034,6 35 0 0,0
25.05.2020 03:00:00 5,8 3,7 - - 15 8 - - WZW 1034,7 40 0 0,0
25.05.2020 02:00:00 6,1 2,8 - - 9 5 - - W 1034,6 45 0 0,0
25.05.2020 01:00:00 6,6 1,2 - - 15 8 - - W 1034,8 60 - 0,0
25.05.2020 00:00:00 6,2 1,3 - - 16 9 - - W 1034,7 55 0 0,0
24.05.2020 23:00:00 7,3 3,1 - - 18 10 - - W 1034,4 40 0 0,0

tt = temperatuur
td = dauwpunt
tt -20cm = temperatuur -20cm
tt -100cm = temperatuur -100cm
ff = windsnelheid
fx = windstoten
dd = windrichting
ppp = luchtdruk
vv = zicht
sd = Zonneschijnduur
rr = neerslag

Weerstations in de omgeving